This is the latest recevied weather packets stored in our database for station/object KE5YIM-13. If no packets are shown the sender has not sent any weather packets the latest 10 day(s).
| Time | Temp. | Humidity | Pressure | Rain* | Wind** | Luminosity | Snow |
|---|---|---|---|---|---|---|---|
| 1777813982 | 9.44° C | 58% | 1011.3 hPa | 0 mm | - | 461 W/m² | - |
| 1777813679 | 8.89° C | 58% | 1011.3 hPa | 0 mm | - | 445 W/m² | - |
| 1777813377 | 9.44° C | 58% | 1011.2 hPa | 0 mm | - | 427 W/m² | - |
| 1777813074 | 9.44° C | 58% | 1011.3 hPa | 0 mm | - | 411 W/m² | - |
| 1777812772 | 9.44° C | 58% | 1011.2 hPa | 0 mm | - | 393 W/m² | - |
| 1777812468 | 8.89° C | 60% | 1011.2 hPa | 0 mm | - | 379 W/m² | - |
| 1777812166 | 8.89° C | 59% | 1011.2 hPa | 0 mm | - | 363 W/m² | - |
| 1777811864 | 8.33° C | 61% | 1011.2 hPa | 0 mm | - | 342 W/m² | - |
| 1777811563 | 7.78° C | 61% | 1011 hPa | 0 mm | - | 325 W/m² | - |
| 1777811258 | 8.33° C | 61% | 1011.1 hPa | 0 mm | - | 309 W/m² | - |
| 1777810955 | 7.78° C | 63% | 1011.3 hPa | 0 mm | - | 292 W/m² | - |
| 1777810651 | 7.78° C | 62% | 1011.3 hPa | 0 mm | - | 277 W/m² | - |
| 1777810349 | 7.78° C | 63% | 1011.1 hPa | 0 mm | - | 262 W/m² | - |
| 1777810044 | 7.78° C | 65% | 1011.2 hPa | 0 mm | - | 247 W/m² | - |
| 1777809743 | 7.22° C | 65% | 1011.3 hPa | 0 mm | - | 202 W/m² | - |
| 1777809440 | 7.22° C | 65% | 1011.1 hPa | 0 mm | - | 71 W/m² | - |
| 1777809137 | 7.22° C | 66% | 1011.1 hPa | 0 mm | - | 221 W/m² | - |
| 1777808835 | 6.67° C | 68% | 1011.1 hPa | 0 mm | - | 199 W/m² | - |
| 1777808531 | 6.11° C | 68% | 1011.2 hPa | 0 mm | - | 98 W/m² | - |
| 1777808229 | 6.11° C | 69% | 1011.2 hPa | 0 mm | - | 87 W/m² | - |
| 1777807928 | 5.56° C | 68% | 1011 hPa | 0 mm | - | 88 W/m² | - |
| 1777807625 | 5.56° C | 69% | 1010.9 hPa | 0 mm | - | 75 W/m² | - |
| 1777807322 | 5.56° C | 69% | 1010.7 hPa | 0 mm | - | 72 W/m² | - |
| 1777807018 | 5.56° C | 69% | 1010.9 hPa | 0 mm | - | 69 W/m² | - |
| 1777806715 | 5.56° C | 68% | 1011.1 hPa | 0 mm | - | 70 W/m² | - |
* Rain latest hour (hover to see other rain measurements)
** Current wind speed in m/s (hover to see current wind gust speed)